Hourly Data Report for October 26, 2016

All times are specified in Local Standard Time (LST). Add 1 hour to adjust for Daylight Saving Time where and when it is observed.

ARVIAT A
NUNAVUT

61°05'38.000" N
94°04'18.000" W
10.40 m
2300427
71174
YEK

Download Data

Hourly Data (October 2016)
Hourly Data Report for October 26, 2016
Temp Definition
°C
Dew Point Temp Definition
°C
Rel Hum Definition
%
Wind Dir Definition
10's deg

Wind Spd Definition
km/h
Visibility Definition
km
Stn Press Definition
kPa
Hmdx Definition


Wind Chill Definition


Weather Definition


TIME
00:00 Legend Double Dagger -1.1 -1.1 100 24 13 16.1 102.77   -5 LegendNANA
01:00 Legend Double Dagger -1.3 -1.3 100 24 8 16.1 102.72   -4 LegendNANA
02:00 Legend Double Dagger -1.3 -1.3 100 24 11 16.1 102.70   -5 LegendNANA
03:00 Legend Double Dagger -1.3 -1.3 100 24 11 16.1 102.67   -5 LegendNANA
04:00 Legend Double Dagger -1.4 -1.4 100 24 11 16.1 102.62   -5 LegendNANA
05:00 Legend Double Dagger -1.4 -1.4 100 27 8 16.1 102.60   -4 LegendNANA
06:00 Legend Double Dagger -1.9 -1.9 100 25 5 16.1 102.57   -4 LegendNANA
07:00 Legend Double Dagger -2.2 -2.2 100 23 9 16.1 102.51   -6 LegendNANA
08:00 Legend Double Dagger -2.6 -2.6 100 23 8 16.1 102.47   -6 LegendNANA
09:00 Legend Double Dagger -2.6 -2.6 100 22 11 16.1 102.44   -7 LegendNANA
10:00 Legend Double Dagger -2.1 -2.1 100 24 17 16.1 102.41   -7 LegendNANA
11:00 Legend Double Dagger -1.4 -1.8 97 22 18 16.1 102.35   -7 LegendNANA
12:00 Legend Double Dagger -0.6 -1.3 95 26 11 16.1 102.32   -4 LegendNANA
13:00 Legend Double Dagger 1.1 -0.2 91 23 17 16.1 102.26     LegendNANA
14:00 Legend Double Dagger -0.2 -0.6 97 24 18 16.1 102.24   -5 LegendNANA
15:00 Legend Double Dagger -0.1 -0.8 95 28 11 16.1 102.23   -4 LegendNANA
16:00 Legend Double Dagger 0.9 -0.8 88 28 9 16.1 102.19     LegendNANA
17:00 Legend Double Dagger -0.7 -1.3 96 31 8 16.1 102.18   -4 LegendNANA
18:00 Legend Double Dagger -0.9 -1.5 96   0 16.1 102.17     LegendNANA
19:00 Legend Double Dagger -1.1 -1.4 98   0 16.1 102.14     LegendNANA
20:00 Legend Double Dagger -1.6 -1.7 99 9 5 16.1 102.09   -3 LegendNANA
21:00 Legend Double Dagger -0.7 -1.1 97 10 5 16.1 102.05   -2 LegendNANA
22:00 Legend Double Dagger -0.5 -1.1 96 11 8 16.1 102.01   -3 LegendNANA
23:00 Legend Double Dagger -0.6 -0.7 99 14 5 16.1 101.98   -2 Snow

Notes on Data Quality.

Legend

  • E = Estimated
  • M = Missing
  • NA = Not Available
  • ‡ = Partner data that is not subject to review by the National Climate Archives
Date modified: